FDX9231 EGPF-EGNT

Flight info

Callsign FDX9231
Flight time 0h 53m
Altitude 7000
Route NORBO Y96 NATEB
Aircraft C208/L-SDFGR/C

Departure

Time 2026-04-28 21:24
Airport Glasgow Airport (EGPF)

Arrival

Time 2026-04-28 22:18
Airport Newcastle International Airport (EGNT)
Time Latitude Longitude Altitude Speed Heading
2026-04-28 20:46 55.86616 -4.42818 32 ft 0 kts 73°
2026-04-28 20:59 55.86613 -4.42834 32 ft 2 kts 73°
2026-04-28 21:00 55.86608 -4.42865 32 ft 3 kts 73°
2026-04-28 21:00 55.86604 -4.42887 32 ft 0 kts 73°
2026-04-28 21:02 55.86605 -4.42887 32 ft 0 kts 73°
2026-04-28 21:02 55.86605 -4.42886 32 ft 0 kts 73°
2026-04-28 21:04 55.86605 -4.42885 32 ft 0 kts 73°
2026-04-28 21:05 55.86605 -4.42884 32 ft 0 kts 73°
2026-04-28 21:07 55.86605 -4.42883 32 ft 0 kts 73°
2026-04-28 21:08 55.86605 -4.42882 32 ft 0 kts 73°
2026-04-28 21:09 55.86605 -4.42881 32 ft 0 kts 72°
2026-04-28 21:10 55.86611 -4.42870 32 ft 3 kts 31°
2026-04-28 21:10 55.86639 -4.42898 32 ft 8 kts 315°
2026-04-28 21:10 55.86688 -4.42936 32 ft 2 kts 343°
2026-04-28 21:10 55.86723 -4.42955 32 ft 8 kts 343°
2026-04-28 21:11 55.86787 -4.42987 32 ft 7 kts 344°
2026-04-28 21:11 55.86828 -4.43040 32 ft 10 kts 288°
2026-04-28 21:11 55.86829 -4.43115 32 ft 6 kts 257°
2026-04-28 21:11 55.86819 -4.43185 32 ft 6 kts 255°
2026-04-28 21:12 55.86807 -4.43259 32 ft 6 kts 251°
2026-04-28 21:12 55.86794 -4.43334 32 ft 7 kts 255°
2026-04-28 21:12 55.86782 -4.43414 32 ft 7 kts 255°
2026-04-28 21:12 55.86768 -4.43497 32 ft 7 kts 253°
2026-04-28 21:13 55.86756 -4.43582 32 ft 7 kts 254°
2026-04-28 21:13 55.86741 -4.43668 32 ft 7 kts 256°
2026-04-28 21:13 55.86722 -4.43753 32 ft 7 kts 239°
2026-04-28 21:13 55.86691 -4.43826 32 ft 7 kts 225°
2026-04-28 21:14 55.86654 -4.43893 32 ft 8 kts 226°
2026-04-28 21:14 55.86617 -4.43957 32 ft 6 kts 202°
2026-04-28 21:14 55.86591 -4.44009 32 ft 6 kts 231°
2026-04-28 21:14 55.86565 -4.44065 32 ft 6 kts 229°
2026-04-28 21:15 55.86536 -4.44123 32 ft 6 kts 229°
2026-04-28 21:15 55.86505 -4.44179 32 ft 7 kts 223°
2026-04-28 21:15 55.86472 -4.44238 32 ft 7 kts 226°
2026-04-28 21:15 55.86439 -4.44301 32 ft 7 kts 226°
2026-04-28 21:16 55.86404 -4.44365 32 ft 7 kts 226°
2026-04-28 21:16 55.86369 -4.44430 32 ft 7 kts 226°
2026-04-28 21:16 55.86332 -4.44497 32 ft 8 kts 225°
2026-04-28 21:16 55.86295 -4.44565 32 ft 8 kts 227°
2026-04-28 21:17 55.86259 -4.44633 32 ft 7 kts 225°
2026-04-28 21:17 55.86254 -4.44706 32 ft 7 kts 304°
2026-04-28 21:17 55.86281 -4.44760 32 ft 0 kts 314°
2026-04-28 21:19 55.86281 -4.44761 32 ft 0 kts 314°
2026-04-28 21:22 55.86282 -4.44761 32 ft 0 kts 314°
2026-04-28 21:23 55.86287 -4.44771 32 ft 9 kts 314°
2026-04-28 21:23 55.86351 -4.44861 32 ft 14 kts 359°
2026-04-28 21:23 55.86443 -4.44722 32 ft 36 kts 46°
2026-04-28 21:23 55.86774 -4.44110 172 ft 81 kts 45°
2026-04-28 21:24 55.86985 -4.43161 471 ft 97 kts 95°
2026-04-28 21:24 55.86590 -4.42187 856 ft 100 kts 130°
2026-04-28 21:24 55.86107 -4.41297 1270 ft 100 kts 128°
2026-04-28 21:24 55.85627 -4.40399 1681 ft 100 kts 128°
2026-04-28 21:25 55.85160 -4.39489 2094 ft 99 kts 124°
2026-04-28 21:25 55.84764 -4.38504 2504 ft 97 kts 117°
2026-04-28 21:25 55.84423 -4.37467 2915 ft 97 kts 114°
2026-04-28 21:25 55.84111 -4.36408 3333 ft 97 kts 112°
2026-04-28 21:26 55.83812 -4.35337 3743 ft 97 kts 111°
2026-04-28 21:26 55.83517 -4.34264 4155 ft 97 kts 110°
2026-04-28 21:26 55.83224 -4.33184 4553 ft 97 kts 110°
2026-04-28 21:26 55.83030 -4.32466 4824 ft 97 kts 110°
2026-04-28 21:27 55.82640 -4.31023 5369 ft 98 kts 110°
2026-04-28 21:27 55.82347 -4.29936 5783 ft 98 kts 110°
2026-04-28 21:27 55.82052 -4.28843 6181 ft 98 kts 110°
2026-04-28 21:27 55.81851 -4.28093 6410 ft 105 kts 110°
2026-04-28 21:28 55.81498 -4.26729 6327 ft 137 kts 110°
2026-04-28 21:28 55.81076 -4.25069 6184 ft 156 kts 111°
2026-04-28 21:28 55.80613 -4.23255 6060 ft 165 kts 111°
2026-04-28 21:28 55.80130 -4.21392 6005 ft 166 kts 111°
2026-04-28 21:29 55.79642 -4.19538 5995 ft 165 kts 112°
2026-04-28 21:29 55.79153 -4.17706 5989 ft 164 kts 112°
2026-04-28 21:29 55.78661 -4.15882 5992 ft 163 kts 112°
2026-04-28 21:29 55.78169 -4.14066 6000 ft 163 kts 112°
2026-04-28 21:30 55.77683 -4.12274 5998 ft 163 kts 112°
2026-04-28 21:30 55.77191 -4.10463 5998 ft 163 kts 112°
2026-04-28 21:30 55.76697 -4.08647 5998 ft 163 kts 112°
2026-04-28 21:30 55.76203 -4.06833 5998 ft 163 kts 112°
2026-04-28 21:31 55.75708 -4.05019 5998 ft 163 kts 112°
2026-04-28 21:31 55.75213 -4.03201 5998 ft 163 kts 112°
2026-04-28 21:31 55.75097 -4.02778 5998 ft 163 kts 112°
2026-04-28 21:32 55.75032 -4.02539 5998 ft 163 kts 112°
2026-04-28 21:32 55.74804 -4.00617 6000 ft 160 kts 84°
2026-04-28 21:32 55.74835 -3.98655 5997 ft 161 kts 96°
2026-04-28 21:33 55.74542 -3.96738 6007 ft 162 kts 104°
2026-04-28 21:33 55.74179 -3.94839 5998 ft 162 kts 106°
2026-04-28 21:33 55.73797 -3.92951 6000 ft 163 kts 108°
2026-04-28 21:33 55.73348 -3.91110 6004 ft 163 kts 111°
2026-04-28 21:34 55.72881 -3.89279 5999 ft 163 kts 111°
2026-04-28 21:34 55.72411 -3.87449 6001 ft 163 kts 111°
2026-04-28 21:34 55.71941 -3.85621 6002 ft 163 kts 111°
2026-04-28 21:34 55.71470 -3.83800 6002 ft 162 kts 111°
2026-04-28 21:35 55.70997 -3.81979 6002 ft 162 kts 111°
2026-04-28 21:35 55.70527 -3.80165 6007 ft 162 kts 111°
2026-04-28 21:35 55.70061 -3.78371 6003 ft 162 kts 111°
2026-04-28 21:35 55.69588 -3.76555 6011 ft 162 kts 111°
2026-04-28 21:36 55.69116 -3.74737 6004 ft 162 kts 111°
2026-04-28 21:36 55.68631 -3.72927 6000 ft 162 kts 113°
2026-04-28 21:36 55.68074 -3.71179 6012 ft 163 kts 117°
2026-04-28 21:36 55.67497 -3.69451 6007 ft 163 kts 116°
2026-04-28 21:37 55.66935 -3.67709 6007 ft 163 kts 115°
2026-04-28 21:37 55.66376 -3.65910 6008 ft 163 kts 115°
2026-04-28 21:37 55.65877 -3.64267 6006 ft 163 kts 114°
2026-04-28 21:37 55.65280 -3.62264 6013 ft 162 kts 114°
2026-04-28 21:38 55.64763 -3.60508 6008 ft 163 kts 114°
2026-04-28 21:38 55.64240 -3.58725 6005 ft 163 kts 114°
2026-04-28 21:38 55.63719 -3.56947 6018 ft 162 kts 114°
2026-04-28 21:38 55.63199 -3.55168 6009 ft 163 kts 113°
2026-04-28 21:39 55.62680 -3.53394 6004 ft 162 kts 113°
2026-04-28 21:39 55.62161 -3.51620 6007 ft 162 kts 113°
2026-04-28 21:39 55.61649 -3.49868 6009 ft 162 kts 113°
2026-04-28 21:39 55.61133 -3.48108 6006 ft 162 kts 114°
2026-04-28 21:40 55.60612 -3.46332 6008 ft 162 kts 114°
2026-04-28 21:40 55.60101 -3.44585 6008 ft 162 kts 114°
2026-04-28 21:40 55.59583 -3.42821 6006 ft 162 kts 113°
2026-04-28 21:40 55.59064 -3.41050 6012 ft 162 kts 114°
2026-04-28 21:41 55.58548 -3.39286 6017 ft 162 kts 113°
2026-04-28 21:41 55.58027 -3.37514 6007 ft 162 kts 114°
2026-04-28 21:41 55.57507 -3.35743 6007 ft 162 kts 114°
2026-04-28 21:41 55.56988 -3.33980 6018 ft 161 kts 114°
2026-04-28 21:42 55.56469 -3.32214 6011 ft 162 kts 114°
2026-04-28 21:42 55.55948 -3.30449 6007 ft 161 kts 113°
2026-04-28 21:42 55.55436 -3.28713 6010 ft 161 kts 113°
2026-04-28 21:42 55.54917 -3.26957 6013 ft 161 kts 113°
2026-04-28 21:43 55.54399 -3.25203 6009 ft 161 kts 113°
2026-04-28 21:43 55.53880 -3.23445 6009 ft 161 kts 113°
2026-04-28 21:43 55.53360 -3.21689 6013 ft 161 kts 113°
2026-04-28 21:43 55.52842 -3.19934 6009 ft 161 kts 113°
2026-04-28 21:44 55.52321 -3.18176 6005 ft 161 kts 114°
2026-04-28 21:44 55.51801 -3.16421 6006 ft 161 kts 114°
2026-04-28 21:44 55.51282 -3.14671 6007 ft 161 kts 114°
2026-04-28 21:44 55.50764 -3.12923 6007 ft 161 kts 113°
2026-04-28 21:45 55.50252 -3.11196 6003 ft 161 kts 114°
2026-04-28 21:45 55.49731 -3.09448 5998 ft 161 kts 114°
2026-04-28 21:45 55.49211 -3.07701 5998 ft 161 kts 114°
2026-04-28 21:45 55.48690 -3.05953 6007 ft 160 kts 114°
2026-04-28 21:46 55.48171 -3.04210 6013 ft 160 kts 114°
2026-04-28 21:46 55.47651 -3.02464 6005 ft 161 kts 114°
2026-04-28 21:46 55.47129 -3.00714 6000 ft 161 kts 114°
2026-04-28 21:46 55.46607 -2.98966 6004 ft 161 kts 114°
2026-04-28 21:47 55.46082 -2.97225 6004 ft 161 kts 114°
2026-04-28 21:47 55.45553 -2.95512 6001 ft 161 kts 114°
2026-04-28 21:47 55.45021 -2.93768 6001 ft 161 kts 114°
2026-04-28 21:47 55.44494 -2.92022 5998 ft 161 kts 114°
2026-04-28 21:48 55.43969 -2.90270 5984 ft 161 kts 114°
2026-04-28 21:48 55.43446 -2.88529 5993 ft 161 kts 113°
2026-04-28 21:48 55.42923 -2.86786 5992 ft 161 kts 114°
2026-04-28 21:48 55.42399 -2.85044 5998 ft 161 kts 113°
2026-04-28 21:49 55.41875 -2.83301 5995 ft 161 kts 113°
2026-04-28 21:49 55.41352 -2.81558 5995 ft 161 kts 114°
2026-04-28 21:49 55.40834 -2.79839 5993 ft 161 kts 114°
2026-04-28 21:49 55.40307 -2.78095 5987 ft 161 kts 114°
2026-04-28 21:50 55.39785 -2.76350 5991 ft 161 kts 113°
2026-04-28 21:50 55.39265 -2.74603 5998 ft 161 kts 114°
2026-04-28 21:50 55.38744 -2.72855 5990 ft 161 kts 114°
2026-04-28 21:50 55.38221 -2.71104 5981 ft 161 kts 114°
2026-04-28 21:51 55.37698 -2.69363 5990 ft 161 kts 114°
2026-04-28 21:51 55.37182 -2.67649 5987 ft 161 kts 114°
2026-04-28 21:51 55.36659 -2.65914 5987 ft 160 kts 114°
2026-04-28 21:51 55.36135 -2.64177 5990 ft 161 kts 114°
2026-04-28 21:52 55.35612 -2.62445 5993 ft 161 kts 114°
2026-04-28 21:52 55.35087 -2.60711 5989 ft 161 kts 114°
2026-04-28 21:52 55.34558 -2.58970 5985 ft 161 kts 114°
2026-04-28 21:52 55.34029 -2.57231 5993 ft 161 kts 114°
2026-04-28 21:53 55.33501 -2.55495 5998 ft 161 kts 114°
2026-04-28 21:53 55.32979 -2.53777 5991 ft 162 kts 114°
2026-04-28 21:53 55.32450 -2.52038 5996 ft 161 kts 114°
2026-04-28 21:53 55.31921 -2.50301 6007 ft 161 kts 114°
2026-04-28 21:54 55.31392 -2.48561 5998 ft 162 kts 114°
2026-04-28 21:54 55.30860 -2.46816 5975 ft 162 kts 114°
2026-04-28 21:54 55.30327 -2.45067 5962 ft 162 kts 114°
2026-04-28 21:54 55.29795 -2.43329 5969 ft 161 kts 115°
2026-04-28 21:55 55.29263 -2.41591 5962 ft 161 kts 114°
2026-04-28 21:55 55.28721 -2.39810 5805 ft 169 kts 114°
2026-04-28 21:55 55.28163 -2.37966 5634 ft 173 kts 114°
2026-04-28 21:55 55.27598 -2.36091 5456 ft 175 kts 114°
2026-04-28 21:56 55.27026 -2.34203 5275 ft 176 kts 115°
2026-04-28 21:56 55.26450 -2.32311 5098 ft 176 kts 115°
2026-04-28 21:56 55.25878 -2.30440 4922 ft 176 kts 115°
2026-04-28 21:56 55.25301 -2.28554 4752 ft 175 kts 115°
2026-04-28 21:57 55.24721 -2.26667 4559 ft 176 kts 115°
2026-04-28 21:57 55.24141 -2.24782 4377 ft 175 kts 115°
2026-04-28 21:57 55.23560 -2.22894 4191 ft 176 kts 115°
2026-04-28 21:57 55.23175 -2.21645 4071 ft 175 kts 115°
2026-04-28 21:58 55.22579 -2.19714 3888 ft 174 kts 115°
2026-04-28 21:58 55.22000 -2.17840 3708 ft 174 kts 115°
2026-04-28 21:58 55.21431 -2.16006 3567 ft 173 kts 115°
2026-04-28 21:58 55.20862 -2.14178 3494 ft 169 kts 115°
2026-04-28 21:59 55.20306 -2.12404 3478 ft 164 kts 116°
2026-04-28 21:59 55.19760 -2.10674 3478 ft 161 kts 116°
2026-04-28 21:59 55.19221 -2.08965 3473 ft 159 kts 115°
2026-04-28 22:00 55.18165 -2.05612 3482 ft 153 kts 115°
2026-04-28 22:00 55.17659 -2.04020 3482 ft 146 kts 115°
2026-04-28 22:00 55.17170 -2.02484 3482 ft 143 kts 115°
2026-04-28 22:00 55.16685 -2.00987 3495 ft 140 kts 115°
2026-04-28 22:01 55.16200 -1.99501 3481 ft 140 kts 115°
2026-04-28 22:01 55.15731 -1.98044 3482 ft 139 kts 115°
2026-04-28 22:01 55.15261 -1.96569 3496 ft 138 kts 114°
2026-04-28 22:01 55.14795 -1.95093 3488 ft 139 kts 114°
2026-04-28 22:02 55.14330 -1.93616 3486 ft 139 kts 114°
2026-04-28 22:02 55.13867 -1.92140 3492 ft 138 kts 114°
2026-04-28 22:02 55.13404 -1.90665 3493 ft 138 kts 114°
2026-04-28 22:02 55.13099 -1.89687 3494 ft 138 kts 114°
2026-04-28 22:03 55.12636 -1.88210 3500 ft 138 kts 114°
2026-04-28 22:03 55.12176 -1.86730 3502 ft 139 kts 114°
2026-04-28 22:03 55.11720 -1.85243 3497 ft 139 kts 114°
2026-04-28 22:03 55.11278 -1.83742 3497 ft 139 kts 113°
2026-04-28 22:04 55.10831 -1.82252 3497 ft 139 kts 114°
2026-04-28 22:04 55.10373 -1.80773 3498 ft 138 kts 114°
2026-04-28 22:04 55.09908 -1.79300 3505 ft 138 kts 114°
2026-04-28 22:04 55.09442 -1.77833 3500 ft 138 kts 114°
2026-04-28 22:05 55.08979 -1.76381 3506 ft 138 kts 114°
2026-04-28 22:05 55.08512 -1.74916 3505 ft 138 kts 114°
2026-04-28 22:05 55.08047 -1.73446 3504 ft 138 kts 114°
2026-04-28 22:05 55.07582 -1.71975 3504 ft 138 kts 115°
2026-04-28 22:06 55.07115 -1.70511 3503 ft 138 kts 115°
2026-04-28 22:06 55.06645 -1.69051 3508 ft 138 kts 115°
2026-04-28 22:06 55.06171 -1.67592 3498 ft 138 kts 115°
2026-04-28 22:06 55.05693 -1.66134 3497 ft 138 kts 116°
2026-04-28 22:07 55.05230 -1.64677 3424 ft 140 kts 110°
2026-04-28 22:07 55.05099 -1.62981 3248 ft 146 kts 88°
2026-04-28 22:07 55.05143 -1.61180 3059 ft 151 kts 85°
2026-04-28 22:07 55.05202 -1.59331 2862 ft 154 kts 73°
2026-04-28 22:08 55.05265 -1.57464 2664 ft 155 kts 72°
2026-04-28 22:08 55.05318 -1.55581 2474 ft 155 kts 84°
2026-04-28 22:08 55.05333 -1.53751 2270 ft 144 kts 86°
2026-04-28 22:08 55.05344 -1.52077 2098 ft 132 kts 87°
2026-04-28 22:09 55.05358 -1.50569 2011 ft 119 kts 77°
2026-04-28 22:09 55.05378 -1.49202 1982 ft 107 kts 78°
2026-04-28 22:09 55.05391 -1.47970 1972 ft 97 kts 84°
2026-04-28 22:09 55.05404 -1.46838 1980 ft 90 kts 86°
2026-04-28 22:10 55.05417 -1.45762 1993 ft 87 kts 86°
2026-04-28 22:10 55.05431 -1.44726 2012 ft 85 kts 86°
2026-04-28 22:10 55.05456 -1.43692 2004 ft 86 kts 80°
2026-04-28 22:10 55.05835 -1.42922 2016 ft 85 kts 37°
2026-04-28 22:11 55.06315 -1.42308 2017 ft 86 kts 30°
2026-04-28 22:11 55.06880 -1.41904 2007 ft 91 kts 11°
2026-04-28 22:11 55.07513 -1.41749 2000 ft 92 kts
2026-04-28 22:11 55.08145 -1.41585 2001 ft 92 kts
2026-04-28 22:12 55.08776 -1.41420 1996 ft 92 kts
2026-04-28 22:12 55.09397 -1.41251 1994 ft 94 kts 356°
2026-04-28 22:12 55.09845 -1.42067 1993 ft 101 kts 283°
2026-04-28 22:12 55.09959 -1.43275 1995 ft 101 kts 290°
2026-04-28 22:13 55.10139 -1.44442 2007 ft 102 kts 263°
2026-04-28 22:13 55.09957 -1.45643 2006 ft 104 kts 244°
2026-04-28 22:13 55.09811 -1.46870 2021 ft 102 kts 250°
2026-04-28 22:13 55.09569 -1.48038 2009 ft 105 kts 241°
2026-04-28 22:14 55.09255 -1.49189 2002 ft 105 kts 237°
2026-04-28 22:14 55.08906 -1.50311 2004 ft 105 kts 235°
2026-04-28 22:14 55.08553 -1.51423 2005 ft 105 kts 234°
2026-04-28 22:14 55.08202 -1.52545 1997 ft 105 kts 234°
2026-04-28 22:15 55.07858 -1.53667 1994 ft 105 kts 235°
2026-04-28 22:15 55.07503 -1.54815 1942 ft 110 kts 236°
2026-04-28 22:15 55.07164 -1.56067 1807 ft 118 kts 241°
2026-04-28 22:15 55.06813 -1.57382 1648 ft 124 kts 241°
2026-04-28 22:16 55.06422 -1.58747 1455 ft 127 kts 242°
2026-04-28 22:16 55.06054 -1.60169 1237 ft 130 kts 246°
2026-04-28 22:16 55.05706 -1.61620 1055 ft 129 kts 246°
2026-04-28 22:16 55.05354 -1.63061 873 ft 128 kts 245°
2026-04-28 22:17 55.04988 -1.64469 709 ft 127 kts 244°
2026-04-28 22:17 55.04624 -1.65862 541 ft 126 kts 234°
2026-04-28 22:17 55.04301 -1.67279 397 ft 123 kts 229°
2026-04-28 22:17 55.03979 -1.68290 272 ft 71 kts 243°
2026-04-28 22:18 55.03810 -1.68921 272 ft 48 kts 243°
2026-04-28 22:18 55.03716 -1.69362 272 ft 32 kts 233°
2026-04-28 22:18 55.03624 -1.69677 272 ft 21 kts 242°
2026-04-28 22:18 55.03584 -1.69918 272 ft 22 kts 277°
2026-04-28 22:19 55.03587 -1.69976 272 ft 0 kts 272°
2026-04-28 22:20 55.03587 -1.69977 272 ft 0 kts 272°
2026-04-28 22:22 55.03587 -1.69978 272 ft 0 kts 272°
2026-04-28 22:24 55.03587 -1.69979 272 ft 0 kts 272°
2026-04-28 22:26 55.03587 -1.69980 272 ft 0 kts 272°
2026-04-28 22:27 55.03588 -1.69990 272 ft 1 kts 272°
2026-04-28 22:27 55.03588 -1.70011 272 ft 2 kts 272°
2026-04-28 22:27 55.03589 -1.70046 272 ft 4 kts 273°
2026-04-28 22:27 55.03595 -1.70150 272 ft 13 kts 279°
2026-04-28 22:28 55.03598 -1.70302 272 ft 9 kts 274°
2026-04-28 22:28 55.03627 -1.70443 272 ft 15 kts 345°
2026-04-28 22:28 55.03737 -1.70433 272 ft 13 kts 14°
2026-04-28 22:28 55.03810 -1.70421 272 ft 11 kts 337°
2026-04-28 22:29 55.03843 -1.70497 272 ft 4 kts 279°
2026-04-28 22:29 55.03846 -1.70565 272 ft 0 kts 272°
2026-04-28 22:29 55.03847 -1.70588 272 ft 3 kts 291°
2026-04-28 22:29 55.03864 -1.70597 272 ft 0 kts